Change the Weather History Date:

Friday, July 26, 2013

  Actual Average Record
Temperature  
Mean Temperature 84 °F 82 °F  
Max Temperature 94 °F 92 °F 98 °F (2010)
Min Temperature 74 °F 71 °F 68 °F (2002)
Cooling Degree Days 19 17  
Month to date cooling degree days 466 425  
Year to date cooling degree days 1581 1269  
Since 1 June cooling degree days 1019 857  
Growing Degree Days 33 (Base 50)    
Moisture  
Dew Point 72 °F    
Average Humidity 68    
Maximum Humidity 87    
Minimum Humidity 49    
Precipitation  
Precipitation 0.94 in 0.22 in 1.92 in (1998)
Month to date precipitation 8.60 5.55  
Year to date precipitation 26.93 30.61  
Sea Level Pressure  
Sea Level Pressure 30.01 in    
Wind  
Wind Speed 3 mph (East)    
Max Wind Speed 15 mph    
Max Gust Speed 21 mph    
Visibility 7 miles    
Events Rain    
T = Trace of Precipitation, MM = Missing Value Source: NWS Daily Summary

Daily Weather History Graph

Daily Weather History Graph

Search for Another Location

Airport or City:

Trip Planner

Search our weather history database for the weather conditions in past years. The results will help you decide how hot, cold, wet, or windy it might be!

Date:

Astronomy

Jul. 26, 2013 Rise Set
Actual Time 6:47 AM EDT 8:31 PM EDT
Civil Twilight 6:20 AM EDT 8:58 PM EDT
Nautical Twilight 5:48 AM EDT 9:30 PM EDT
Astronomical Twilight 5:14 AM EDT 10:03 PM EDT
Moon 11:10 PM EDT (7/26) 10:59 AM EDT (7/26)
Length of Visible Light 14h 37m
Length of Day
13h 44m
Waning Gibbous, 80% of the Moon is Illuminated
Jul 26
Waning Gibbous
Jul 29
Last Quarter
Aug 6
New
Aug 14
First Quarter
Aug 20
Full

Hourly Weather History & Observations

Time (EDT) Temp. Heat Index Dew Point Humidity Pressure Visibility Wind Dir Wind Speed Gust Speed Precip Events Conditions
12:53 AM 77.0 °F - 72.0 °F 84% 29.99 in 6.0 mi Calm Calm - N/A   Haze
1:53 AM 75.9 °F - 72.0 °F 87% 29.99 in 3.0 mi Calm Calm - N/A   Clear
2:53 AM 75.9 °F - 71.1 °F 85% 29.98 in 4.0 mi Calm Calm - N/A   Haze
3:53 AM 75.0 °F - 71.1 °F 87% 29.98 in 5.0 mi Calm Calm - N/A   Clear
4:53 AM 75.0 °F - 70.0 °F 84% 29.99 in 4.0 mi Calm Calm - N/A   Haze
5:53 AM 75.0 °F - 70.0 °F 84% 30.00 in 3.0 mi Calm Calm - N/A   Haze
6:19 AM 75.2 °F - 69.8 °F 83% 29.99 in 2.5 mi Calm Calm - N/A   Haze
6:30 AM 73.4 °F - 69.8 °F 88% 29.99 in 3.0 mi Calm Calm - N/A   Clear
6:53 AM 73.9 °F - 70.0 °F 87% 30.02 in 4.0 mi Calm Calm - N/A   Clear
7:53 AM 78.1 °F - 73.0 °F 84% 30.03 in 5.0 mi Calm Calm - N/A   Haze
8:53 AM 82.9 °F 89.4 °F 73.9 °F 74% 30.04 in 8.0 mi NNE 3.5 mph - N/A   Scattered Clouds
9:53 AM 88.0 °F 96.5 °F 73.9 °F 63% 30.05 in 10.0 mi Calm Calm - N/A   Clear
10:53 AM 91.0 °F 99.3 °F 73.0 °F 55% 30.05 in 10.0 mi Variable 3.5 mph - N/A   Clear
11:53 AM 93.0 °F 100.1 °F 71.1 °F 49% 30.05 in 10.0 mi ESE 3.5 mph - N/A   Mostly Cloudy
12:53 PM 91.9 °F 100.7 °F 73.0 °F 54% 30.04 in 10.0 mi Calm Calm - N/A   Mostly Cloudy
1:53 PM 90.0 °F 97.9 °F 73.0 °F 57% 30.03 in 10.0 mi NE 11.5 mph - N/A   Overcast
2:06 PM 84.2 °F 89.6 °F 71.6 °F 66% 30.02 in 1.5 mi East 12.7 mph 19.6 mph 0.16 in Rain Heavy Rain
2:14 PM 80.6 °F 82.7 °F 66.2 °F 61% 30.01 in 0.8 mi NNE 10.4 mph 20.7 mph 0.29 in Rain Heavy Rain
2:22 PM 77.0 °F - 69.8 °F 78% 30.01 in 3.0 mi NW 6.9 mph - 0.47 in Rain Heavy Rain
2:53 PM 78.1 °F - 71.1 °F 79% 30.04 in 5.0 mi WNW 5.8 mph - 0.54 in Rain Light Rain
3:53 PM 82.0 °F 89.4 °F 75.9 °F 82% 30.01 in 7.0 mi Calm Calm - 0.01 in   Mostly Cloudy
4:53 PM 89.1 °F 104.4 °F 79.0 °F 72% 29.99 in 10.0 mi Calm Calm - N/A   Mostly Cloudy
5:53 PM 91.0 °F 101.6 °F 75.0 °F 59% 29.99 in 10.0 mi East 3.5 mph - N/A   Mostly Cloudy
6:53 PM 89.1 °F 98.0 °F 73.9 °F 61% 29.99 in 10.0 mi NE 3.5 mph - N/A   Mostly Cloudy
7:53 PM 86.0 °F 93.0 °F 73.0 °F 65% 29.99 in 10.0 mi ESE 3.5 mph - N/A   Partly Cloudy
8:53 PM 84.0 °F 91.2 °F 73.9 °F 72% 30.00 in 10.0 mi South 5.8 mph - N/A   Overcast
9:53 PM 82.9 °F 88.8 °F 73.0 °F 72% 30.01 in 10.0 mi SE 6.9 mph - N/A   Mostly Cloudy
10:53 PM 81.0 °F 85.2 °F 72.0 °F 74% 30.01 in 10.0 mi SE 4.6 mph - N/A   Clear
11:53 PM 80.1 °F 84.2 °F 73.0 °F 79% 30.02 in 10.0 mi SE 3.5 mph - N/A   Overcast